Flag for Saint Helena Weather past 2 weeks in Jamestown, Saint Helena

Now
58 °F

Cool.


Feels Like: 55 °F
Forecast: 65 / 68 °F
Wind: 14 mph from Southeast

Location: Saint Helena Island

Current Time: Sep 3, 2015 at 7:36:54 AM

Latest Report: Sep 3, 2015 at 5:00 AM


Visibility: N/A

Pressure: 30.11 "Hg

Humidity: 93%

Dew point: 56 °F

Location of JamestownLocation

Historic Weather in Jamestown — Graph

°F

Jamestown temperature yesterday

Maximum temperature yesterday: 62 °F (at 11:00 AM)
Minimum temperature yesterday: 58 °F (at 10:00 PM)
Average temperature yesterday: 60 °F

Past Weeks' High & Low Weather Summary

 TemperatureHumidityPressure
High65 °F (Aug 30, 2:00 PM)100% (Aug 19, 10:00 AM)30.23 "Hg (Aug 19, 10:00 AM)
Low57 °F (Aug 23, 11:00 PM)65% (Aug 30, 2:00 PM)30.05 "Hg (Aug 23, 4:00 PM)
Average59 °F86%30.13 "Hg
* Reported Aug 19 5:00 AM — Sep 3 5:00 AM, Jamestown, Weather by CustomWeather, © 2015

Note: Actual official high and low records may vary slightly from our data, if they occured in-between our weather recording intervals... More about our weather records

Advertising

Jamestown weather history for previous 24 hours

 ConditionsComfort  
Time TempWeatherWind HumidityBarometerVisibility
5:00 AM
Thu, Sep 3
58 °FCool.14 mph93%30.11 "HgN/A
3:00 AM58 °FCool.10 mph91%30.14 "HgN/A
2:00 AM58 °FCool.13 mph90%30.16 "HgN/A
1:00 AM57 °FCool.9 mph94%30.18 "HgN/A
11:00 PM
Wed, Sep 2
59 °FCool.9 mph86%30.19 "HgN/A
10:00 PM58 °FCool.10 mph91%30.19 "HgN/A
8:00 PM59 °FCool.12 mph96%30.15 "HgN/A
7:00 PM58 °FCool.10 mph92%30.14 "HgN/A
6:00 PM60 °FCool.10 mph82%30.12 "HgN/A
5:00 PM60 °FCool.13 mph82%30.10 "HgN/A
4:00 PM61 °FCool.15 mph80%30.09 "HgN/A
3:00 PM62 °FCool.14 mph78%30.10 "HgN/A
2:00 PM62 °FCool.16 mph78%30.11 "HgN/A
12:00 PM61 °FCool.16 mph75%30.16 "HgN/A
11:00 AM62 °FCool.17 mph74%30.16 "HgN/A
10:00 AM61 °FCool.17 mph81%30.17 "HgN/A
9:00 AM60 °FCool.18 mph87%30.16 "HgN/A
8:00 AM60 °FCool.15 mph81%30.14 "HgN/A
7:00 AM59 °FCool.18 mph77%30.13 "HgN/A
Weather by CustomWeather, © 2015

See weather overviewHow to use our weather pages